Location: Stilling
(56.0622°N, 9.9882°E)
Time: 23:53:18
(UTC+00:00)

Cosmos 2237 Rocket - Pass Details

Date: 13 July 2020
Orbit: 835 x 850 km, 71.0° (Epoch: 14 August)

Event Time Altitude Azimuth Distance (km) Brightness Sun altitude
Rises 21:58:06 0° 234° (SW) 3,410 5.2 -10.1°
Reaches altitude 10° 22:00:37 10° 239° (WSW) 2,478 4.5 -10.2°
Maximum altitude 22:06:09 50° 315° (NW) 1,079 3.2 -10.5°
Drops below altitude 10° 22:11:43 10° 31° (NNE) 2,488 5.3 -10.7°
Sets 22:14:16 0° 37° (NE) 3,426 5.9 -10.8°
